Time,TemperatureF,DewpointF,PressureIn,WindDirection,WindDirectionDegrees,WindSpeedMPH,WindSpeedGustMPH,Humidity,HourlyPrecipIn,Conditions,Clouds,dailyrainin,SoftwareType,DateUTC
2013-01-29 00:00:00,25.9,23.6,30.03,North,5,0.0,0.0,91,0.00,,,0.08,Wunderground v.1.15,2013-01-29 05:00:00,
2013-01-29 00:10:00,25.9,23.6,30.03,North,5,0.0,0.0,91,0.00,,,0.01,Wunderground v.1.15,2013-01-29 05:10:00,
2013-01-29 00:20:00,25.7,23.4,30.03,NNW,343,0.0,0.0,91,0.00,,,0.01,Wunderground v.1.15,2013-01-29 05:20:00,
2013-01-29 00:30:00,25.7,23.7,30.03,NNW,343,0.0,0.0,92,0.00,,,0.01,Wunderground v.1.15,2013-01-29 05:30:00,
2013-01-29 00:40:00,25.7,23.4,30.03,NW,323,0.0,0.0,91,0.00,,,0.01,Wunderground v.1.15,2013-01-29 05:40:00,
2013-01-29 00:50:00,25.8,23.8,30.03,NW,323,0.0,0.0,92,0.00,,,0.01,Wunderground v.1.15,2013-01-29 05:50:00,
2013-01-29 01:00:00,25.6,23.6,30.03,NNW,345,0.0,0.0,92,0.00,,,0.01,Wunderground v.1.15,2013-01-29 06:00:00,
2013-01-29 01:10:00,25.7,23.7,30.03,NW,306,0.0,0.0,92,0.00,,,0.01,Wunderground v.1.15,2013-01-29 06:10:00,
2013-01-29 01:19:00,26.0,24.0,30.03,NW,315,0.0,0.0,92,0.00,,,0.01,Wunderground v.1.15,2013-01-29 06:19:00,
2013-01-29 01:30:00,26.0,24.0,30.04,NNE,15,0.0,0.0,92,0.00,,,0.01,Wunderground v.1.15,2013-01-29 06:30:00,
2013-01-29 01:40:00,25.8,23.8,30.04,NNW,336,1.0,1.0,92,0.00,,,0.01,Wunderground v.1.15,2013-01-29 06:40:00,
2013-01-29 01:50:00,25.7,23.7,30.05,NNW,346,0.0,1.0,92,0.00,,,0.01,Wunderground v.1.15,2013-01-29 06:50:00,
2013-01-29 02:00:00,25.7,24.0,30.05,North,349,0.0,0.0,93,0.00,,,0.01,Wunderground v.1.15,2013-01-29 07:00:00,
2013-01-29 02:10:00,25.6,23.6,30.05,North,349,0.0,0.0,92,0.00,,,0.01,Wunderground v.1.15,2013-01-29 07:10:00,
2013-01-29 02:20:00,25.8,24.1,30.05,NNW,331,0.0,0.0,93,0.00,,,0.01,Wunderground v.1.15,2013-01-29 07:20:00,
2013-01-29 02:30:00,25.8,23.8,30.05,NNW,331,0.0,0.0,92,0.00,,,0.01,Wunderground v.1.15,2013-01-29 07:30:00,
2013-01-29 02:40:00,26.0,24.0,30.05,NNW,331,0.0,0.0,92,0.00,,,0.01,Wunderground v.1.15,2013-01-29 07:40:00,
2013-01-29 02:50:00,25.9,23.9,30.06,NNW,335,0.0,0.0,92,0.00,,,0.01,Wunderground v.1.15,2013-01-29 07:50:00,
2013-01-29 03:00:00,25.6,23.6,30.06,NNE,17,0.0,0.0,92,0.00,,,0.01,Wunderground v.1.15,2013-01-29 08:00:00,
2013-01-29 03:10:00,25.4,23.4,30.06,NNW,336,0.0,0.0,92,0.00,,,0.01,Wunderground v.1.15,2013-01-29 08:10:00,
2013-01-29 03:20:00,25.3,23.3,30.06,NW,304,0.0,0.0,92,0.00,,,0.01,Wunderground v.1.15,2013-01-29 08:20:00,
2013-01-29 03:30:00,25.3,23.3,30.06,NW,315,0.0,0.0,92,0.00,,,0.01,Wunderground v.1.15,2013-01-29 08:30:00,
2013-01-29 03:40:00,25.2,23.2,30.07,NNW,331,0.0,0.0,92,0.00,,,0.01,Wunderground v.1.15,2013-01-29 08:40:00,
2013-01-29 03:50:00,25.2,23.2,30.06,NNW,331,0.0,0.0,92,0.00,,,0.01,Wunderground v.1.15,2013-01-29 08:50:00,
2013-01-29 04:00:00,25.3,23.3,30.07,NNW,331,0.0,0.0,92,0.00,,,0.01,Wunderground v.1.15,2013-01-29 09:00:00,
2013-01-29 04:10:00,25.4,23.4,30.07,NNW,331,0.0,0.0,92,0.00,,,0.01,Wunderground v.1.15,2013-01-29 09:10:00,
2013-01-29 04:20:00,25.3,23.3,30.07,NNW,331,0.0,1.0,92,0.00,,,0.01,Wunderground v.1.15,2013-01-29 09:20:00,
2013-01-29 04:30:00,25.3,23.3,30.07,NNW,331,0.0,0.0,92,0.00,,,0.01,Wunderground v.1.15,2013-01-29 09:30:00,
2013-01-29 04:40:00,25.3,23.3,30.08,NNW,332,0.0,0.0,92,0.00,,,0.01,Wunderground v.1.15,2013-01-29 09:40:00,
2013-01-29 04:50:00,25.1,23.1,30.08,NNW,328,1.0,1.0,92,0.00,,,0.01,Wunderground v.1.15,2013-01-29 09:50:00,
2013-01-29 05:00:00,25.1,23.1,30.08,NNW,328,0.0,0.0,92,0.00,,,0.01,Wunderground v.1.15,2013-01-29 10:00:00,
2013-01-29 05:10:00,25.1,22.8,30.08,WNW,303,0.0,0.0,91,0.00,,,0.01,Wunderground v.1.15,2013-01-29 10:10:00,
2013-01-29 05:20:00,25.1,22.8,30.09,WNW,303,0.0,0.0,91,0.00,,,0.01,Wunderground v.1.15,2013-01-29 10:20:00,
2013-01-29 05:30:00,25.0,22.7,30.08,NW,304,0.0,0.0,91,0.00,,,0.01,Wunderground v.1.15,2013-01-29 10:30:00,
2013-01-29 05:40:00,24.9,22.9,30.09,NNW,336,0.0,0.0,92,0.00,,,0.01,Wunderground v.1.15,2013-01-29 10:40:00,
2013-01-29 05:50:00,24.9,22.6,30.09,NNW,336,0.0,0.0,91,0.00,,,0.01,Wunderground v.1.15,2013-01-29 10:50:00,
2013-01-29 06:00:00,24.8,22.8,30.09,NNW,336,0.0,0.0,92,0.00,,,0.01,Wunderground v.1.15,2013-01-29 11:00:00,
2013-01-29 06:10:00,24.8,22.8,30.10,NNW,336,0.0,0.0,92,0.00,,,0.01,Wunderground v.1.15,2013-01-29 11:10:00,
2013-01-29 06:20:00,24.7,22.4,30.10,NNW,336,0.0,0.0,91,0.00,,,0.01,Wunderground v.1.15,2013-01-29 11:20:00,
2013-01-29 06:30:00,24.8,22.5,30.10,NW,325,0.0,1.0,91,0.00,,,0.01,Wunderground v.1.15,2013-01-29 11:30:00,
2013-01-29 06:40:00,24.7,22.4,30.11,NW,325,0.0,0.0,91,0.00,,,0.01,Wunderground v.1.15,2013-01-29 11:40:00,
2013-01-29 06:50:00,24.8,22.5,30.12,NW,325,0.0,0.0,91,0.00,,,0.01,Wunderground v.1.15,2013-01-29 11:50:00,
2013-01-29 07:00:00,24.9,22.6,30.12,NW,321,0.0,0.0,91,0.00,,,0.01,Wunderground v.1.15,2013-01-29 12:00:00,
2013-01-29 07:10:00,25.0,22.7,30.12,NW,321,0.0,1.0,91,0.00,,,0.01,Wunderground v.1.15,2013-01-29 12:10:00,
2013-01-29 07:20:00,25.2,22.9,30.13,NW,321,0.0,0.0,91,0.00,,,0.01,Wunderground v.1.15,2013-01-29 12:20:00,
2013-01-29 07:30:00,25.2,22.7,30.14,NW,320,0.0,0.0,90,0.00,,,0.01,Wunderground v.1.15,2013-01-29 12:30:00,
2013-01-29 07:40:00,25.4,23.1,30.14,NW,320,0.0,0.0,91,0.00,,,0.01,Wunderground v.1.15,2013-01-29 12:40:00,
2013-01-29 07:50:00,25.5,23.2,30.15,NW,320,0.0,0.0,91,0.00,,,0.01,Wunderground v.1.15,2013-01-29 12:50:00,
2013-01-29 08:00:00,25.6,23.3,30.15,NW,320,0.0,0.0,91,0.00,,,0.01,Wunderground v.1.15,2013-01-29 13:00:00,
2013-01-29 08:10:00,25.6,23.3,30.15,NW,320,0.0,0.0,91,0.00,,,0.01,Wunderground v.1.15,2013-01-29 13:10:00,
2013-01-29 08:20:00,25.6,23.3,30.15,North,355,1.0,3.0,91,0.00,,,0.01,Wunderground v.1.15,2013-01-29 13:20:00,
2013-01-29 08:30:00,25.7,23.4,30.16,NW,321,0.0,0.0,91,0.00,,,0.01,Wunderground v.1.15,2013-01-29 13:30:00,
2013-01-29 08:40:00,25.8,23.5,30.17,West,278,1.0,3.0,91,0.00,,,0.01,Wunderground v.1.15,2013-01-29 13:40:00,
2013-01-29 08:50:00,26.0,23.5,30.17,West,278,0.0,0.0,90,0.00,,,0.01,Wunderground v.1.15,2013-01-29 13:50:00,
2013-01-29 09:00:00,26.3,23.8,30.17,West,275,1.0,1.0,90,0.00,,,0.01,Wunderground v.1.15,2013-01-29 14:00:00,
2013-01-29 09:10:00,26.6,24.1,30.17,West,269,1.0,1.0,90,0.00,,,0.01,Wunderground v.1.15,2013-01-29 14:10:00,
2013-01-29 09:20:00,27.2,24.7,30.17,West,269,0.0,0.0,90,0.00,,,0.01,Wunderground v.1.15,2013-01-29 14:20:00,
2013-01-29 09:30:00,27.5,24.7,30.16,West,269,0.0,0.0,89,0.00,,,0.01,Wunderground v.1.15,2013-01-29 14:30:00,
2013-01-29 09:40:00,27.6,24.8,30.16,West,269,0.0,1.0,89,0.00,,,0.01,Wunderground v.1.15,2013-01-29 14:40:00,
2013-01-29 09:50:00,27.6,24.8,30.16,NW,315,1.0,1.0,89,0.00,,,0.01,Wunderground v.1.15,2013-01-29 14:50:00,
2013-01-29 10:00:00,28.4,25.8,30.17,NW,315,0.0,0.0,90,0.00,,,0.01,Wunderground v.1.15,2013-01-29 15:00:00,
2013-01-29 10:09:00,29.0,26.2,30.17,NW,315,0.0,0.0,89,0.00,,,0.01,Wunderground v.1.15,2013-01-29 15:09:00,
2013-01-29 10:20:00,29.4,26.0,30.18,NW,323,1.0,1.0,87,0.00,,,0.01,Wunderground v.1.15,2013-01-29 15:20:00,
2013-01-29 10:30:00,29.5,26.4,30.18,WNW,294,1.0,1.0,88,0.00,,,0.01,Wunderground v.1.15,2013-01-29 15:30:00,
2013-01-29 10:40:00,29.9,26.8,30.18,WNW,294,0.0,0.0,88,0.00,,,0.01,Wunderground v.1.15,2013-01-29 15:40:00,
2013-01-29 10:50:00,30.5,27.4,30.19,WNW,291,0.0,0.0,88,0.00,,,0.01,Wunderground v.1.15,2013-01-29 15:50:00,
2013-01-29 11:00:00,30.7,27.3,30.18,NNW,336,0.0,0.0,87,0.00,,,0.01,Wunderground v.1.15,2013-01-29 16:00:00,
2013-01-29 11:10:00,30.6,27.2,30.18,NNW,346,1.0,1.0,87,0.00,,,0.01,Wunderground v.1.15,2013-01-29 16:10:00,
2013-01-29 11:20:00,30.8,27.7,30.18,NNW,346,1.0,1.0,88,0.00,,,0.01,Wunderground v.1.15,2013-01-29 16:20:00,
2013-01-29 11:29:00,31.1,28.0,30.18,NNW,333,0.0,0.0,88,0.00,,,0.01,Wunderground v.1.15,2013-01-29 16:29:00,
2013-01-29 11:40:00,31.6,28.5,30.18,ENE,75,0.0,0.0,88,0.00,,,0.01,Wunderground v.1.15,2013-01-29 16:40:00,
2013-01-29 11:50:00,31.7,28.6,30.18,West,259,1.0,1.0,88,0.00,,,0.01,Wunderground v.1.15,2013-01-29 16:50:00,
2013-01-29 12:00:00,32.0,28.8,30.17,South,171,0.0,1.0,88,0.00,,,0.01,Wunderground v.1.15,2013-01-29 17:00:00,
2013-01-29 12:10:00,32.1,28.7,30.17,ESE,104,0.0,0.0,87,0.00,,,0.01,Wunderground v.1.15,2013-01-29 17:10:00,
2013-01-29 12:20:00,32.2,28.8,30.17,ESE,104,0.0,1.0,87,0.00,,,0.01,Wunderground v.1.15,2013-01-29 17:20:00,
2013-01-29 12:30:00,32.1,28.4,30.17,NNW,346,1.0,1.0,86,0.00,,,0.01,Wunderground v.1.15,2013-01-29 17:30:00,
2013-01-29 12:40:00,32.0,28.6,30.17,NNW,346,0.0,1.0,87,0.00,,,0.01,Wunderground v.1.15,2013-01-29 17:40:00,
2013-01-29 12:50:00,32.1,28.7,30.17,NNW,344,0.0,0.0,87,0.00,,,0.01,Wunderground v.1.15,2013-01-29 17:50:00,
2013-01-29 13:00:00,32.4,29.0,30.16,NNW,348,0.0,0.0,87,0.00,,,0.01,Wunderground v.1.15,2013-01-29 18:00:00,
2013-01-29 13:10:00,32.6,28.9,30.16,NW,314,1.0,2.0,86,0.00,,,0.01,Wunderground v.1.15,2013-01-29 18:10:00,
2013-01-29 13:20:00,32.6,28.9,30.16,NW,314,1.0,1.0,86,0.00,,,0.01,Wunderground v.1.15,2013-01-29 18:20:00,
2013-01-29 13:30:00,33.0,29.3,30.15,NW,314,0.0,1.0,86,0.00,,,0.01,Wunderground v.1.15,2013-01-29 18:30:00,
2013-01-29 13:40:00,33.2,29.2,30.16,NW,314,0.0,0.0,85,0.00,,,0.01,Wunderground v.1.15,2013-01-29 18:40:00,
2013-01-29 13:50:00,33.2,29.2,30.16,NW,314,0.0,0.0,85,0.00,,,0.01,Wunderground v.1.15,2013-01-29 18:50:00,
2013-01-29 14:00:00,33.5,29.5,30.17,NW,314,0.0,0.0,85,0.00,,,0.01,Wunderground v.1.15,2013-01-29 19:00:00,
2013-01-29 14:10:00,33.5,29.2,30.17,NW,312,0.0,0.0,84,0.00,,,0.01,Wunderground v.1.15,2013-01-29 19:10:00,
2013-01-29 14:20:00,33.5,29.5,30.16,SE,128,0.0,0.0,85,0.00,,,0.01,Wunderground v.1.15,2013-01-29 19:20:00,
2013-01-29 14:30:00,33.7,29.7,30.16,SE,128,0.0,0.0,85,0.00,,,0.01,Wunderground v.1.15,2013-01-29 19:30:00,
2013-01-29 14:40:00,33.8,29.5,30.17,SSE,156,1.0,1.0,84,0.00,,,0.01,Wunderground v.1.15,2013-01-29 19:40:00,
2013-01-29 14:50:00,33.7,29.7,30.17,SSE,155,0.0,0.0,85,0.00,,,0.01,Wunderground v.1.15,2013-01-29 19:50:00,
2013-01-29 15:00:00,33.6,29.6,30.17,SSE,158,0.0,1.0,85,0.00,,,0.01,Wunderground v.1.15,2013-01-29 20:00:00,
2013-01-29 15:10:00,33.8,29.8,30.17,SSE,158,0.0,0.0,85,0.00,,,0.01,Wunderground v.1.15,2013-01-29 20:10:00,
2013-01-29 15:20:00,33.9,29.9,30.17,SSE,158,0.0,0.0,85,0.00,,,0.01,Wunderground v.1.15,2013-01-29 20:20:00,
2013-01-29 15:30:00,34.3,30.3,30.17,SSE,158,0.0,0.0,85,0.00,,,0.01,Wunderground v.1.15,2013-01-29 20:30:00,
2013-01-29 15:40:00,34.5,30.5,30.17,SSE,158,0.0,0.0,85,0.00,,,0.01,Wunderground v.1.15,2013-01-29 20:40:00,
2013-01-29 15:50:00,34.5,30.5,30.17,SSE,158,0.0,0.0,85,0.00,,,0.01,Wunderground v.1.15,2013-01-29 20:50:00,
2013-01-29 16:00:00,34.5,30.5,30.16,SSE,158,0.0,0.0,85,0.00,,,0.01,Wunderground v.1.15,2013-01-29 21:00:00,
2013-01-29 16:10:00,34.4,30.4,30.16,SSE,158,0.0,0.0,85,0.00,,,0.01,Wunderground v.1.15,2013-01-29 21:10:00,
2013-01-29 16:20:00,34.3,30.5,30.17,SSE,158,0.0,0.0,86,0.00,,,0.01,Wunderground v.1.15,2013-01-29 21:20:00,
2013-01-29 16:30:00,34.2,30.4,30.17,SSE,158,0.0,0.0,86,0.00,,,0.01,Wunderground v.1.15,2013-01-29 21:30:00,
2013-01-29 16:40:00,34.2,30.7,30.18,SSE,158,0.0,0.0,87,0.00,,,0.01,Wunderground v.1.15,2013-01-29 21:40:00,
2013-01-29 16:50:00,34.2,30.4,30.18,SSE,158,0.0,0.0,86,0.00,,,0.01,Wunderground v.1.15,2013-01-29 21:50:00,
2013-01-29 17:00:00,34.1,30.4,30.17,SSE,158,0.0,0.0,86,0.00,,,0.01,Wunderground v.1.15,2013-01-29 22:00:00,
2013-01-29 17:10:00,33.7,30.2,30.16,SSE,158,0.0,0.0,87,0.00,,,0.01,Wunderground v.1.15,2013-01-29 22:10:00,
2013-01-29 17:20:00,33.5,30.3,30.16,SSE,158,0.0,1.0,88,0.00,,,0.01,Wunderground v.1.15,2013-01-29 22:20:00,
2013-01-29 17:30:00,33.3,30.1,30.16,SSE,158,0.0,0.0,88,0.00,,,0.01,Wunderground v.1.15,2013-01-29 22:30:00,
2013-01-29 17:40:00,33.0,30.1,30.17,SSE,158,0.0,0.0,89,0.00,,,0.01,Wunderground v.1.15,2013-01-29 22:40:00,
2013-01-29 17:50:00,33.0,30.1,30.17,SSE,158,0.0,0.0,89,0.00,,,0.01,Wunderground v.1.15,2013-01-29 22:50:00,
2013-01-29 18:00:00,33.0,30.1,30.17,SSE,158,0.0,0.0,89,0.00,,,0.01,Wunderground v.1.15,2013-01-29 23:00:00,
2013-01-29 18:10:00,33.0,30.1,30.19,SSE,158,0.0,0.0,89,0.00,,,0.01,Wunderground v.1.15,2013-01-29 23:10:00,
2013-01-29 18:20:00,33.1,30.2,30.19,SSE,158,0.0,0.0,89,0.00,,,0.01,Wunderground v.1.15,2013-01-29 23:20:00,
2013-01-29 18:30:00,33.2,30.3,30.17,SSE,158,0.0,0.0,89,0.00,,,0.01,Wunderground v.1.15,2013-01-29 23:30:00,
2013-01-29 19:20:00,33.3,30.7,30.16,SSE,158,0.0,0.0,90,0.00,,,0.01,Wunderground v.1.15,2013-01-30 00:20:00,
2013-01-29 19:30:00,33.2,30.3,30.17,SSE,158,0.0,0.0,89,0.00,,,0.01,Wunderground v.1.15,2013-01-30 00:30:00,
2013-01-29 19:40:00,33.2,30.3,30.18,SSE,158,0.0,0.0,89,0.00,,,0.01,Wunderground v.1.15,2013-01-30 00:40:00,
2013-01-29 19:50:00,33.3,30.7,30.18,SSE,158,0.0,0.0,90,0.00,,,0.01,Wunderground v.1.15,2013-01-30 00:50:00,
2013-01-29 20:00:00,33.3,30.7,30.18,SSE,158,0.0,0.0,90,0.00,,,0.01,Wunderground v.1.15,2013-01-30 01:00:00,
2013-01-29 20:10:00,33.2,30.6,30.18,SSE,158,0.0,0.0,90,0.00,,,0.01,Wunderground v.1.15,2013-01-30 01:10:00,
2013-01-29 20:20:00,33.3,30.7,30.18,SSE,158,0.0,0.0,90,0.00,,,0.01,Wunderground v.1.15,2013-01-30 01:20:00,
2013-01-29 20:30:00,33.2,30.6,30.19,SSE,158,0.0,0.0,90,0.00,,,0.01,Wunderground v.1.15,2013-01-30 01:30:00,
2013-01-29 20:40:00,33.2,30.6,30.19,SSE,158,0.0,0.0,90,0.00,,,0.01,Wunderground v.1.15,2013-01-30 01:40:00,
2013-01-29 20:50:00,33.5,30.9,30.19,SSE,158,0.0,0.0,90,0.00,,,0.01,Wunderground v.1.15,2013-01-30 01:50:00,
2013-01-29 21:00:00,33.5,30.9,30.19,SSE,158,0.0,0.0,90,0.00,,,0.01,Wunderground v.1.15,2013-01-30 02:00:00,
2013-01-29 21:10:00,33.6,31.0,30.19,SSE,158,0.0,0.0,90,0.00,,,0.01,Wunderground v.1.15,2013-01-30 02:10:00,
2013-01-29 21:20:00,33.7,31.1,30.17,SSE,158,0.0,0.0,90,0.00,,,0.01,Wunderground v.1.15,2013-01-30 02:20:00,
2013-01-29 21:30:00,33.5,30.9,30.16,SSE,158,0.0,0.0,90,0.00,,,0.01,Wunderground v.1.15,2013-01-30 02:30:00,
2013-01-29 21:39:00,33.3,31.0,30.17,SSE,158,0.0,0.0,91,0.00,,,0.01,Wunderground v.1.15,2013-01-30 02:39:00,
2013-01-29 21:50:00,33.3,31.0,30.17,SSE,158,0.0,0.0,91,0.00,,,0.01,Wunderground v.1.15,2013-01-30 02:50:00,
2013-01-29 22:00:00,33.1,31.0,30.17,SSE,158,0.0,0.0,92,0.00,,,0.01,Wunderground v.1.15,2013-01-30 03:00:00,
2013-01-29 22:10:00,33.3,31.2,30.16,SSE,158,0.0,0.0,92,0.00,,,0.01,Wunderground v.1.15,2013-01-30 03:10:00,
2013-01-29 22:20:00,33.1,31.0,30.15,SSE,158,1.0,1.0,92,0.00,,,0.01,Wunderground v.1.15,2013-01-30 03:20:00,
2013-01-29 22:30:00,33.0,31.2,30.14,SSE,158,1.0,1.0,93,0.00,,,0.01,Wunderground v.1.15,2013-01-30 03:30:00,
2013-01-29 22:40:00,32.9,31.1,30.15,SSE,158,0.0,0.0,93,0.00,,,0.01,Wunderground v.1.15,2013-01-30 03:40:00,
2013-01-29 22:50:00,33.1,31.6,30.15,SSE,158,0.0,0.0,94,0.00,,,0.01,Wunderground v.1.15,2013-01-30 03:50:00,
2013-01-29 23:00:00,33.4,31.6,30.15,SSE,158,0.0,0.0,93,0.00,,,0.01,Wunderground v.1.15,2013-01-30 04:00:00,
2013-01-29 23:10:00,33.3,31.5,30.15,SSE,158,0.0,0.0,93,0.00,,,0.01,Wunderground v.1.15,2013-01-30 04:10:00,
2013-01-29 23:20:00,33.2,31.4,30.15,SSE,158,0.0,0.0,93,0.00,,,0.01,Wunderground v.1.15,2013-01-30 04:20:00,
2013-01-29 23:30:00,33.2,31.4,30.15,SSE,158,0.0,0.0,93,0.00,,,0.01,Wunderground v.1.15,2013-01-30 04:30:00,
2013-01-29 23:40:00,33.3,31.5,30.15,SSE,158,0.0,0.0,93,0.00,,,0.01,Wunderground v.1.15,2013-01-30 04:40:00,
2013-01-29 23:50:00,33.4,31.6,30.15,SSE,158,0.0,0.0,93,0.00,,,0.01,Wunderground v.1.15,2013-01-30 04:50:00,